Location: Newark
(40.9908°N, 0.0353°W)
Time: 13:03:50
(UTC+00:00)

ISS - Pass Details

Date: 29 October 2019
Orbit: 412 x 421 km, 51.6° (Epoch: 22 November)

Event Time Altitude Azimuth Distance (km) Brightness Sun altitude
Exits shadow 05:29:22 17° 298° (WNW) 1,152 -2.1 -11.4°
Maximum altitude 05:31:00 24° 338° (NNW) 924 -2.3 -11.1°
Drops below altitude 10° 05:33:49 10° 35° (NE) 1,509 -0.6 -10.6°
Sets 05:36:07 0° 49° (NE) 2,343 0.7 -10.2°
